Weather History for KGZH - April, 2013

Change the Weather History Date:

Saturday, April 27, 2013

  Actual Average (KPRN) Record (KPRN)
Temperature  
Mean Temperature 68 °F -  
Max Temperature 84 °F 80 °F 92 °F (1987)
Min Temperature 52 °F 53 °F 38 °F (1992)
Cooling Degree Days 3    
Growing Degree Days 18 (Base 50)    
Moisture  
Dew Point 58 °F    
Average Humidity 73    
Maximum Humidity 94    
Minimum Humidity 46    
Precipitation  
Precipitation 0.00 in - - ()
Sea Level Pressure  
Sea Level Pressure 30.17 in    
Wind  
Wind Speed 4 mph (South)    
Max Wind Speed 14 mph    
Max Gust Speed -    
Visibility 9 miles    
Events      
Averages and records for this station are not official NWS values.
T = Trace of Precipitation, MM = Missing Value Source: NWS Daily Summary

Daily Weather History Graph

Daily Weather History Graph

Search for Another Location

Airport or City:

Trip Planner

Search our weather history database for the weather conditions in past years. The results will help you decide how hot, cold, wet, or windy it might be!

Date:

Astronomy

Apr. 27, 2013 Rise Set
Actual Time 6:06 AM CDT 7:25 PM CDT
Civil Twilight 5:41 AM CDT 7:50 PM CDT
Nautical Twilight 5:10 AM CDT 8:21 PM CDT
Astronomical Twilight 4:39 AM CDT 8:53 PM CDT
Moon 9:47 PM CDT (4/27) 7:30 AM CDT (4/27)
Length of Visible Light 14h 09m
Length of Day
13h 18m
Waning Gibbous, 95% of the Moon is Illuminated
Apr 27
Waning Gibbous
May 2
Last Quarter
May 9
New
May 17
First Quarter
May 24
Full

Hourly Weather History & Observations

Time (CDT) Temp. Heat Index Dew Point Humidity Pressure Visibility Wind Dir Wind Speed Gust Speed Precip Events Conditions
12:53 AM 55.9 °F - 52.0 °F 87% 30.25 in 10.0 mi Calm Calm - N/A   Clear
1:53 AM 55.9 °F - 53.1 °F 90% 30.22 in 9.0 mi Calm Calm - N/A   Clear
2:53 AM 54.0 °F - 52.0 °F 93% 30.21 in 10.0 mi Calm Calm - N/A   Clear
3:53 AM 53.1 °F - 51.1 °F 93% 30.20 in 9.0 mi Calm Calm - N/A   Clear
4:53 AM 53.1 °F - 50.0 °F 89% 30.18 in 10.0 mi Calm Calm - N/A   Clear
5:53 AM 52.0 °F - 48.9 °F 89% 30.19 in 8.0 mi Calm Calm - N/A   Clear
6:53 AM 55.9 °F - 52.0 °F 87% 30.22 in 10.0 mi Calm Calm - N/A   Overcast
7:53 AM 57.9 °F - 53.1 °F 84% 30.25 in 10.0 mi Calm Calm - N/A   Overcast
8:53 AM 64.9 °F - 55.9 °F 73% 30.25 in 10.0 mi Calm Calm - N/A   Mostly Cloudy
9:53 AM 71.1 °F - 57.9 °F 63% 30.23 in 10.0 mi SE 9.2 mph - N/A   Overcast
10:53 AM 73.0 °F - 61.0 °F 66% 30.23 in 10.0 mi SSE 9.2 mph - N/A   Scattered Clouds
11:53 AM 78.1 °F - 63.0 °F 60% 30.21 in 10.0 mi SSE 8.1 mph - N/A   Clear
12:53 PM 81.0 °F 82.2 °F 63.0 °F 54% 30.18 in 10.0 mi SSE 12.7 mph - N/A   Partly Cloudy
1:53 PM 82.9 °F 83.2 °F 60.1 °F 46% 30.15 in 10.0 mi South 12.7 mph - N/A   Partly Cloudy
2:53 PM 82.9 °F 83.3 °F 61.0 °F 47% 30.13 in 10.0 mi SSE 13.8 mph - N/A   Mostly Cloudy
3:53 PM 84.0 °F 84.4 °F 61.0 °F 46% 30.12 in 10.0 mi SSE 11.5 mph - N/A   Scattered Clouds
4:53 PM 81.0 °F 81.7 °F 61.0 °F 50% 30.11 in 10.0 mi South 10.4 mph - N/A   Mostly Cloudy
5:53 PM 80.1 °F 80.9 °F 60.1 °F 50% 30.09 in 10.0 mi South 11.5 mph - N/A   Clear
6:53 PM 77.0 °F - 61.0 °F 58% 30.11 in 10.0 mi South 6.9 mph - N/A   Clear
7:53 PM 73.0 °F - 62.1 °F 68% 30.09 in 10.0 mi South 10.4 mph - N/A   Clear
8:53 PM 72.0 °F - 63.0 °F 73% 30.08 in 10.0 mi South 12.7 mph - N/A   Clear
9:53 PM 70.0 °F - 64.0 °F 81% 30.10 in 10.0 mi SSW 5.8 mph - N/A   Clear
10:53 PM 66.9 °F - 64.0 °F 90% 30.11 in 8.0 mi South 3.5 mph - N/A   Partly Cloudy
11:13 PM 66.2 °F - 64.4 °F 94% 30.12 in 6.0 mi South 3.5 mph - N/A   Mostly Cloudy
11:53 PM 70.0 °F - 66.0 °F 87% 30.12 in 6.0 mi South 8.1 mph - N/A   Overcast